Total_Precipitation_Accumulation
1.79 1.95 2.46 2.51 2.16 1.92 1.83 1.72 1.62 1.69 1.54 1.43 1.50 1.51 1.63 1.64 1.64 1.60 1.64 1.83 2.03 2.22 2.42 2.66 2.65 2.49 2.28 2.03 1.76 1.52 1.38 1.46 1.65 1.91 1.95 1.88 1.90 2.10 2.38 2.34 2.22 1.65 1.61
1.62 1.82 2.35 2.40 1.97 1.72 1.66 1.63 1.71 1.67 1.57 1.48 1.52 1.55 1.75 1.74 1.58 1.52 1.71 1.92 2.08 2.29 2.44 2.37 2.25 2.03 1.85 1.63 1.38 1.22 1.27 1.50 1.82 2.04 2.09 1.86 2.00 2.17 2.25 2.14 2.21 1.61 1.44
1.36 1.44 1.74 2.07 1.88 1.63 1.53 1.60 1.66 1.54 1.51 1.52 1.57 1.56 1.69 1.67 1.53 1.54 1.69 1.82 2.05 2.35 2.19 1.98 1.83 1.65 1.48 1.30 1.16 1.21 1.42 1.66 2.04 2.28 2.42 1.78 1.65 2.08 2.06 1.94 1.74 1.32 1.25
1.05 1.12 1.25 1.53 1.54 1.43 1.35 1.37 1.35 1.36 1.36 1.44 1.57 1.50 1.54 1.53 1.45 1.51 1.70 1.80 1.98 1.96 1.73 1.73 1.65 1.45 1.23 1.10 1.07 1.20 1.42 1.63 2.03 2.38 2.47 1.66 1.30 1.59 1.63 1.44 1.34 1.19 1.08
0.92 0.99 1.14 1.27 1.24 1.26 1.25 1.22 1.18 1.21 1.29 1.40 1.43 1.44 1.50 1.45 1.45 1.54 1.68 1.82 1.80 1.63 1.55 1.59 1.46 1.31 1.05 0.93 0.98 1.13 1.29 1.54 1.90 2.02 1.73 1.64 1.53 1.47 1.29 1.20 1.28 1.13 1.00
0.80 0.87 1.04 1.09 0.96 1.00 1.05 1.04 1.07 1.14 1.30 1.37 1.31 1.42 1.51 1.56 1.55 1.58 1.63 1.66 1.56 1.42 1.42 1.32 1.20 1.12 0.95 0.88 0.99 1.13 1.33 1.66 1.69 1.21 1.21 1.45 1.32 1.28 1.15 1.21 1.21 1.02 0.95
0.70 0.80 0.87 0.91 0.84 0.85 0.93 0.94 1.02 1.18 1.38 1.41 1.34 1.36 1.42 1.50 1.54 1.49 1.41 1.39 1.39 1.30 1.21 1.14 1.10 0.99 0.94 0.92 1.00 1.11 1.38 1.62 1.37 1.01 1.17 1.43 1.18 1.00 1.09 1.17 1.26 1.12 0.98
0.72 0.80 0.87 0.92 0.85 0.85 0.92 0.95 1.03 1.27 1.50 1.47 1.35 1.34 1.33 1.33 1.34 1.29 1.24 1.24 1.27 1.19 1.08 1.03 0.98 0.90 0.86 0.87 0.93 1.08 1.22 1.15 0.97 0.94 1.04 1.25 0.94 0.87 0.97 1.10 1.23 1.24 1.18
0.90 1.05 1.05 0.94 0.95 1.08 1.19 1.25 1.34 1.55 1.62 1.51 1.47 1.38 1.32 1.25 1.23 1.26 1.22 1.20 1.18 1.11 1.06 0.95 0.87 0.81 0.79 0.82 0.88 0.99 1.04 1.04 1.01 1.09 0.95 1.06 0.84 0.85 0.97 1.07 1.16 1.25 1.24
1.07 1.06 1.08 0.97 0.97 1.03 1.29 1.66 1.70 1.69 1.68 1.62 1.52 1.45 1.33 1.21 1.21 1.25 1.15 1.28 1.24 1.23 1.20 1.13 1.02 0.89 0.89 0.96 0.96 1.04 1.08 0.98 0.99 1.07 1.23 1.03 0.87 0.97 1.12 1.18 1.20 1.26 1.32
1.44 1.34 1.21 0.97 1.04 1.23 1.50 1.67 1.72 1.75 1.84 1.91 1.81 1.67 1.63 1.71 1.65 1.75 1.51 1.73 1.62 1.59 1.51 1.48 1.38 1.31 1.25 1.12 1.20 1.31 1.21 1.02 1.29 1.43 1.31 0.98 1.02 1.34 1.56 1.39 1.30 1.32 1.35
1.93 1.74 1.51 1.28 1.31 1.53 1.55 1.52 1.62 1.68 1.83 1.93 2.03 1.95 2.23 2.51 2.39 1.87 2.04 2.32 2.29 2.18 2.05 2.08 2.21 1.96 1.64 1.42 1.79 2.02 1.41 1.27 1.52 1.47 1.37 1.38 1.58 1.93 2.13 1.85 1.62 1.52 1.43
2.03 1.96 1.89 1.72 1.70 1.61 1.63 1.60 1.78 1.95 2.30 2.18 2.07 2.11 2.56 2.45 2.17 1.97 2.21 2.56 2.79 2.62 2.46 2.57 2.68 2.24 2.30 2.51 2.60 2.58 1.97 1.74 1.91 1.84 1.64 1.76 2.05 2.47 2.80 2.57 2.17 1.91 1.74
2.56 2.45 2.33 2.21 2.10 2.11 2.02 1.88 1.82 1.93 2.16 2.25 2.38 2.16 2.54 2.74 2.62 2.57 2.82 2.79 2.98 3.12 3.51 3.28 3.33 3.09 3.05 2.89 2.85 2.91 2.67 2.56 2.35 2.49 2.54 2.35 2.49 2.83 3.25 3.29 2.87 2.41 2.10
2.97 2.86 2.82 2.74 2.68 2.69 2.62 2.45 1.99 2.14 2.24 2.36 2.60 2.57 2.71 3.01 3.10 3.15 3.12 3.03 2.77 3.11 3.55 3.81 3.41 3.65 3.70 3.31 2.97 2.80 2.77 2.71 2.85 3.07 2.98 3.11 3.05 3.06 3.42 3.61 3.42 3.13 2.91
3.11 3.31 3.49 3.42 3.27 3.31 3.20 3.06 2.83 2.63 2.81 2.77 2.86 3.05 3.22 3.49 3.65 3.62 3.44 3.32 2.94 2.93 3.27 3.50 3.46 3.86 3.71 3.52 2.89 2.74 2.66 2.78 2.97 3.01 3.04 3.52 3.43 3.16 3.25 3.60 3.83 3.78 3.54
3.26 3.80 4.18 4.22 4.09 4.10 4.01 3.71 3.44 3.32 3.34 3.61 3.78 3.75 3.68 3.81 4.10 3.93 3.70 3.29 3.06 3.06 3.30 3.26 3.27 3.40 3.27 3.16 2.91 2.93 2.87 2.82 2.79 2.88 3.07 3.33 3.21 2.94 2.98 3.22 3.68 4.00 4.21
3.55 4.18 4.62 4.81 4.96 4.86 4.83 4.55 4.12 3.95 3.92 4.00 4.08 4.11 3.92 3.96 3.86 3.87 3.55 3.10 3.12 3.12 3.19 3.31 3.17 3.26 3.24 3.23 3.18 2.91 2.92 2.90 2.55 2.56 2.73 2.82 2.98 2.65 2.79 2.98 3.18 3.48 4.20
3.87 4.59 5.14 5.69 5.92 5.77 5.48 5.08 4.69 4.62 4.49 4.34 4.33 4.29 4.10 3.83 3.64 3.81 3.49 3.28 3.18 3.15 3.02 2.79 3.23 3.40 3.41 3.39 3.01 2.86 2.62 2.42 2.26 2.09 2.12 2.01 2.23 2.43 2.68 2.70 2.90 3.10 3.86
3.93 4.72 5.47 6.14 6.34 6.08 5.54 5.21 5.10 4.94 4.63 4.40 4.15 3.99 3.74 3.57 3.28 3.49 3.20 3.12 3.20 3.34 3.17 3.16 3.47 3.51 3.22 3.28 2.87 2.75 2.59 2.17 2.07 1.99 1.89 1.88 1.84 1.79 2.20 2.65 3.08 2.76 3.14
4.16 4.90 5.58 6.12 6.17 5.99 5.66 5.32 5.07 4.61 4.28 4.01 3.74 3.54 3.30 3.01 2.90 3.26 3.02 3.37 3.19 3.13 2.97 2.90 3.01 3.08 2.78 2.99 3.30 2.85 2.33 2.03 1.90 1.79 1.78 1.84 1.78 1.88 2.20 2.66 2.97 3.11 2.92
4.01 4.56 4.98 5.04 4.79 4.70 4.75 4.67 4.42 4.42 4.24 4.14 3.93 3.77 3.29 3.09 2.99 2.81 3.01 2.83 2.81 2.92 2.70 2.60 2.82 2.84 2.55 2.84 3.07 3.12 2.55 2.33 1.96 1.46 1.61 1.75 1.85 2.07 2.08 2.17 2.58 2.95 2.86
3.48 3.81 3.84 3.76 3.66 3.77 3.89 3.85 3.90 4.14 4.17 4.18 4.09 3.83 3.45 3.25 3.12 2.96 2.86 2.68 2.64 2.49 2.61 2.63 2.69 2.77 2.74 2.64 2.69 2.99 2.71 2.38 1.99 1.55 1.48 1.71 2.03 2.30 2.25 2.26 2.24 2.50 2.58
2.75 2.86 2.83 2.91 3.00 3.11 3.20 3.25 3.12 3.16 3.41 3.66 3.85 3.92 3.80 3.52 3.26 2.97 2.79 2.59 2.44 2.31 2.57 2.27 2.38 2.69 2.89 2.57 2.50 2.48 2.43 2.53 2.43 2.06 1.65 1.53 1.81 2.01 2.05 1.94 1.99 2.18 2.39
2.01 2.12 2.15 2.44 2.83 3.01 3.11 3.24 3.14 2.83 2.84 2.91 3.05 3.23 3.22 3.20 3.01 2.69 2.59 2.53 2.35 2.21 2.25 2.26 2.54 2.56 2.58 2.52 2.56 2.49 2.57 2.73 2.55 2.40 2.06 1.93 2.06 1.96 1.84 1.78 1.84 2.01 2.27
1.60 1.74 1.94 2.24 2.72 3.00 3.07 3.03 2.99 2.91 2.90 2.82 2.81 2.89 2.77 2.73 2.63 2.39 2.30 2.40 2.27 2.17 2.20 2.21 2.35 2.41 2.57 2.65 2.64 2.57 2.63 2.63 2.66 2.83 2.49 2.25 2.23 1.96 1.86 1.85 1.94 2.07 2.24